Regional Weather Roundup
Issued by NWS

Home | Current Version | Previous Version | Text Only | Print | Product List | Glossary On
Versions: 1 2 3 4 5 6 7 8 9 10 11 12 13 14 15 16 17 18 19 20 21 22 23 24 25 26 27 28 29 30 31 32 33 34 35 36 37 38 39 40 41 42 43 44 45 46 47 48 49 50
000
ASUS43 KIND 280609
RWRIN

WEATHER ROUNDUP FOR INDIANA
NATIONAL WEATHER SERVICE INDIANAPOLIS IN
200 AM EDT FRI AUG 28 2015

NOTE: "FAIR" INDICATES FEW OR NO CLOUDS BELOW 12,000 FEET WITH NO
SIGNIFICANT WEATHER AND/OR OBSTRUCTIONS TO VISIBILITY.

* - STATION DOES NOT REPORT WEATHER SUCH AS PRECIPITATION OR FOG.

+ - STATION NOT QUALITY CONTROLLED BY THE NATIONAL WEATHER SERVICE.
    USE DATA WITH CAUTION...ESPECIALLY DEWPOINT AND RELATIVE
    HUMIDITY OBSERVATIONS.

INZ001>003-010>013-019-020-280700-
NORTHWEST INDIANA

CITY           SKY/WX    TMP DP  RH WIND       PRES   REMARKS
GARY /AIRPORT/ FAIR      57  54  89 CALM      30.15S
KNOX *+        FAIR      52  52 100 CALM      30.15S
LA PORTE +     FAIR      55  55 100 CALM      30.16S
6HR MIN TEMP:  54; 6HR MAX TEMP:  67;

MICHIGAN CITY+   N/A     54  54 100 CALM      30.15S FOG
MONTICELLO +   FAIR      61  58  89 CALM      30.14S
6HR MIN TEMP:  61; 6HR MAX TEMP:  68;

RENSSELAER +   FAIR      57  57 100 NE3       30.14S
VALPARAISO     FAIR      56  54  93 E3        30.16S
6HR MIN TEMP:  55; 6HR MAX TEMP:  65;


$$

LMZ046-743>745-280700-
SOUTHERN LAKE MICHIGAN

STATION/POSITION TIME  TEMP    WIND        PRES    WAVE
                       AIR SEA DIR/SP/G            HT
                 (UTC) (F)     (DEG/KT/KT) (MB)    (FT)
BURNS HARBOR     0500   62      80/  7/  8 1021.0
MICHIGAN CITY    0500   60      80/  3/  4   N/A
5NW MICH CITY    0600   65 71  140/ 10/ 10   N/A     1

$$

INZ004-005-014>016-021>024-280700-
NORTH CENTRAL INDIANA

CITY           SKY/WX    TMP DP  RH WIND       PRES   REMARKS
GOSHEN         FAIR      56  53  90 SE5       30.16F
6HR MIN TEMP:  55; 6HR MAX TEMP:  65;

LOGANSPORT +   FAIR      55  52  88 E3        30.16S
PERU/GRISSOM   MOCLDY    61  56  85 E3        30.14S
6HR MIN TEMP:  60; 6HR MAX TEMP:  69;

ROCHESTER +    FAIR      59  57  94 CALM      30.16S
SOUTH BEND     FAIR      56  53  90 CALM      30.17R
6HR MIN TEMP:  56; 6HR MAX TEMP:  66;

WARSAW +       FAIR      55  54  94 E3        30.17S

$$

INZ006>009-017-018-025>027-280700-
NORTHEAST INDIANA

CITY           SKY/WX    TMP DP  RH WIND       PRES   REMARKS
ANGOLA *+      CLEAR     54  52  94 SE3       30.18R
AUBURN +       FAIR      55  52  88 CALM      30.18S FOG
FORT WAYNE     FAIR      58  55  90 E5        30.17S
6HR MIN TEMP:  58; 6HR MAX TEMP:  69;

HUNTINGTON +   MOCLDY    57  52  85 CALM      30.16S
6HR MIN TEMP:  56; 6HR MAX TEMP:  66;


$$

INZ028-029-035-036-043>045-051>053-280700-
WEST CENTRAL INDIANA

CITY           SKY/WX    TMP DP  RH WIND       PRES   REMARKS
CRAWFORDSVL +  FAIR      53  53 100 CALM      30.14S
6HR MIN TEMP:  53; 6HR MAX TEMP:  67;

GREENCASTLE +  FAIR      59  54  82 CALM      30.14R
LAFAYETTE      FAIR      60  56  86 CALM      30.13S
6HR MIN TEMP:  60; 6HR MAX TEMP:  71;

TERRE HAUTE    FAIR      58  56  93 CALM      30.13R
6HR MIN TEMP:  58; 6HR MAX TEMP:  76;


$$

INZ030>032-037>040-046>048-054>057-064-065-280700-
CENTRAL INDIANA

CITY           SKY/WX    TMP DP  RH WIND       PRES   REMARKS
FRANKFORT +    FAIR     N/A N/A N/A E6        30.16R
GREENWOOD *+   FAIR      61  55  82 CALM      30.15S
INDIANAPOLIS   FAIR      63  57  81 SE6       30.12S
6HR MIN TEMP:  63; 6HR MAX TEMP:  73;

-EAGLE CREEK   FAIR      65  57  75 SE3       30.14R
6HR MIN TEMP:  64; 6HR MAX TEMP:  74;

KOKOMO *+      FAIR      57  54  88 SE5       30.15F
6HR MIN TEMP:  57; 6HR MAX TEMP:  68;

MARION +       FAIR      56  50  80 CALM      30.16S
MT COMFORT *+  FAIR      54 N/A N/A CALM      30.15R
SHELBYVILLE    FAIR      58  54  86 E3        30.13F
6HR MIN TEMP:  58; 6HR MAX TEMP:  71;

ZIONSVILLE +   FAIR      57  54  88 CALM      30.15S
6HR MIN TEMP:  57; 6HR MAX TEMP:  70;


$$

INZ033-034-041-042-049-050-058-059-280700-
EAST CENTRAL INDIANA

CITY           SKY/WX    TMP DP  RH WIND       PRES   REMARKS
MUNCIE         FAIR      54  53  97 CALM      30.16R
6HR MIN TEMP:  54; 6HR MAX TEMP:  67;


$$

INZ060-061-067>069-081>083-085>088-280700-
SOUTHWEST INDIANA

CITY           SKY/WX    TMP DP  RH WIND       PRES   REMARKS
EVANSVILLE     FAIR      62  59  90 NE3       30.11S
6HR MIN TEMP:  62; 6HR MAX TEMP:  77;

HUNTINGBURG *+ FAIR      61  55  82 SE3       30.12S
6HR MIN TEMP:  61; 6HR MAX TEMP:  75;

WASHINGTON +   FAIR      58  55  88 CALM      30.11F
6HR MIN TEMP:  58; 6HR MAX TEMP:  76;


$$

INZ062-063-066-070>080-084-089>092-280700-
SOUTH CENTRAL AND SOUTHEAST INDIANA

CITY           SKY/WX    TMP DP  RH WIND       PRES   REMARKS
BLOOMINGTON    FAIR      57  55  93 CALM      30.13S
6HR MIN TEMP:  57; 6HR MAX TEMP:  69;

MADISON *+     FAIR      55  54  94 CALM      30.16S
NORTH VERNON + FAIR      59  59 100 CALM      30.15F
SEYMOUR +      FOG       55  55 100 CALM      30.13F VSB 1/2

$$



USA.gov is the U.S. government's official web portal to all federal, state and local government web resources and services.